Tarboro, NC

4:03 AM EST on February 13, 2016 (GMT -0500)
Tarboro-edgecombe

Weather History for KETC - February, 2013

Change the Weather History Date:

Saturday, February 2, 2013

  Actual Average Record
Temperature  
Mean Temperature 30 °F -  
Max Temperature 44 °F 56 °F 76 °F (1988)
Min Temperature 17 °F 31 °F 12 °F (1971)
Degree Days  
Heating Degree Days 34    
Moisture  
Dew Point 14 °F    
Average Humidity 55    
Maximum Humidity 91    
Minimum Humidity 22    
Precipitation  
Precipitation 0.00 in - - ()
Sea Level Pressure  
Sea Level Pressure 30.28 in    
Wind  
Wind Speed 2 mph (SSW)    
Max Wind Speed 12 mph    
Max Gust Speed 16 mph    
Visibility 10 miles    
Events Rain    
Averages and records for this station are not official NWS values.
T = Trace of Precipitation, MM = Missing Value Source: NWS Daily Summary

Daily Weather History Graph

Daily Weather History Graph

Search for Another Location

Airport or City:

Trip Planner

Search our weather history database for the weather conditions in past years. The results will help you decide how hot, cold, wet, or windy it might be!

Date:

Astronomy

Feb. 02, 2013 Rise Set
Actual Time 7:09 AM EST 5:38 PM EST
Civil Twilight 6:42 AM EST 6:05 PM EST
Nautical Twilight 6:12 AM EST 6:36 PM EST
Astronomical Twilight 5:42 AM EST 7:06 PM EST
Moon No Moon Rise 10:33 AM EST (2/2)
Length of Visible Light 11h 22m
Length of Day
10h 28m
Waning Gibbous, 60% of the Moon is Illuminated
Feb 2
Waning Gibbous
Feb 3
Last Quarter
Feb 10
New
Feb 17
First Quarter
Feb 25
Full

Hourly Weather History & Observations

Time (EST) Temp. Windchill Dew Point Humidity Pressure Visibility Wind Dir Wind Speed Gust Speed Precip Events Conditions
12:15 AM 25.7 °F 21.5 °F 8.8 °F 49% 30.41 in 10.0 mi West 3.5 mph - N/A   Clear
12:35 AM 24.3 °F 19.9 °F 10.6 °F 56% 30.40 in 10.0 mi NNW 3.5 mph - N/A   Clear
12:55 AM 24.1 °F - 11.1 °F 58% 30.41 in 10.0 mi Calm Calm - N/A   Clear
1:15 AM 21.9 °F - 14.4 °F 73% 30.41 in 10.0 mi Calm Calm - N/A   Clear
1:35 AM 22.5 °F 17.8 °F 14.7 °F 72% 30.41 in 10.0 mi NNW 3.5 mph - N/A   Clear
1:55 AM 22.8 °F - 13.5 °F 67% 30.40 in 10.0 mi Calm Calm - N/A   Clear
2:15 AM 20.3 °F - 14.0 °F 77% 30.41 in 10.0 mi Calm Calm - N/A   Clear
2:35 AM 20.3 °F - 16.3 °F 85% 30.40 in 10.0 mi Calm Calm - N/A   Clear
2:55 AM 20.7 °F - 16.2 °F 83% 30.40 in 10.0 mi Calm Calm - N/A   Clear
3:15 AM 20.3 °F - 16.2 °F 84% 30.40 in 10.0 mi Calm Calm - N/A   Clear
3:35 AM 20.5 °F - 17.6 °F 89% 30.39 in 10.0 mi Calm Calm - N/A   Clear
3:55 AM 20.3 °F - 16.7 °F 86% 30.40 in 10.0 mi Calm Calm - N/A   Clear
4:15 AM 19.4 °F - 15.4 °F 85% 30.40 in 10.0 mi Calm Calm - N/A   Clear
4:35 AM 19.4 °F - 15.3 °F 84% 30.41 in 10.0 mi Calm Calm - N/A   Clear
4:55 AM 18.9 °F - 15.3 °F 86% 30.41 in 10.0 mi Calm Calm - N/A   Clear
5:15 AM 18.9 °F - 15.8 °F 88% 30.41 in 10.0 mi Calm Calm - N/A   Clear
5:35 AM 18.9 °F - 15.4 °F 87% 30.41 in 10.0 mi Calm Calm - N/A   Clear
5:55 AM 18.5 °F - 15.8 °F 89% 30.41 in 10.0 mi Calm Calm - N/A   Clear
6:15 AM 18.5 °F - 15.6 °F 89% 30.41 in 10.0 mi Calm Calm - N/A   Clear
6:35 AM 18.5 °F - 15.6 °F 89% 30.41 in 10.0 mi Calm Calm - N/A   Clear
6:55 AM 17.8 °F - 15.4 °F 91% 30.41 in 10.0 mi Calm Calm - N/A   Clear
7:15 AM 17.6 °F - 15.3 °F 91% 30.41 in 10.0 mi Calm Calm - N/A   Clear
7:35 AM 17.6 °F - 15.3 °F 91% 30.42 in 10.0 mi Calm Calm - N/A   Clear
7:55 AM 19.4 °F - 16.7 °F 89% 30.42 in 10.0 mi Calm Calm - N/A   Clear
8:15 AM 21.9 °F - 18.1 °F 85% 30.42 in 10.0 mi Calm Calm - N/A   Clear
8:35 AM 24.3 °F - 16.3 °F 72% 30.42 in 10.0 mi Calm Calm - N/A   Clear
8:55 AM 26.8 °F - 13.5 °F 57% 30.42 in 10.0 mi Calm Calm - N/A   Clear
9:15 AM 28.2 °F - 12.9 °F 53% 30.42 in 10.0 mi Calm Calm - N/A   Clear
9:35 AM 29.5 °F 24.5 °F 12.6 °F 49% 30.42 in 10.0 mi ESE 4.6 mph - N/A   Clear
9:55 AM 30.4 °F 25.6 °F 10.6 °F 44% 30.41 in 10.0 mi SSE 4.6 mph - N/A   Clear
10:15 AM 31.3 °F - 7.2 °F 36% 30.41 in 10.0 mi Calm Calm - N/A   Clear
10:35 AM 32.2 °F - 4.6 °F 31% 30.41 in 10.0 mi Calm Calm - N/A   Clear
10:55 AM 33.6 °F 30.6 °F 5.5 °F 31% 30.39 in 10.0 mi South 3.5 mph - N/A   Clear
11:15 AM 33.8 °F 30.8 °F 5.4 °F 30% 30.39 in 10.0 mi South 3.5 mph - N/A   Clear
11:35 AM 34.3 °F 30.2 °F 4.8 °F 29% 30.37 in 10.0 mi SSW 4.6 mph - N/A   Clear
11:55 AM 36.0 °F 32.1 °F 5.4 °F 28% 30.35 in 10.0 mi SE 4.6 mph - N/A   Clear
12:15 PM 36.7 °F - 4.6 °F 26% 30.32 in 10.0 mi Calm Calm - N/A   Clear
12:35 PM 37.2 °F 32.6 °F 4.5 °F 25% 30.31 in 10.0 mi South 5.8 mph - N/A   Clear
12:55 PM 39.6 °F 34.7 °F 6.1 °F 25% 30.28 in 10.0 mi SE 6.9 mph - N/A   Clear
1:15 PM 40.3 °F 35.5 °F 6.6 °F 25% 30.28 in 10.0 mi South 6.9 mph - N/A   Clear
1:35 PM 40.3 °F 35.5 °F 6.1 °F 24% 30.26 in 10.0 mi South 6.9 mph - N/A   Clear
1:55 PM 40.8 °F 35.0 °F 6.3 °F 24% 30.24 in 10.0 mi South 9.2 mph - N/A   Clear
2:15 PM 41.5 °F 35.9 °F 6.8 °F 24% 30.23 in 10.0 mi South 9.2 mph - N/A   Clear
2:35 PM 42.4 °F 36.5 °F 6.3 °F 23% 30.22 in 10.0 mi SSW 10.4 mph - N/A   Clear
2:55 PM 43.2 °F 38.4 °F 6.6 °F 22% 30.20 in 10.0 mi South 8.1 mph - N/A   Clear
3:15 PM 43.5 °F 38.3 °F 7.0 °F 22% 30.20 in 10.0 mi SSW 9.2 mph - N/A   Clear
3:35 PM 44.1 °F 40.8 °F 7.2 °F 22% 30.19 in 10.0 mi SSW 5.8 mph 16.1 mph N/A   Clear
3:55 PM 44.1 °F 40.1 °F 7.9 °F 23% 30.18 in 10.0 mi South 6.9 mph - N/A   Clear
4:15 PM 44.4 °F 38.6 °F 8.6 °F 23% 30.17 in 10.0 mi SSW 11.5 mph 16.1 mph N/A   Clear
4:35 PM 44.6 °F 42.2 °F 8.8 °F 23% 30.17 in 10.0 mi SSW 4.6 mph - N/A   Scattered Clouds
4:55 PM 42.8 °F 38.6 °F 10.0 °F 26% 30.16 in 10.0 mi South 6.9 mph - N/A   Mostly Cloudy
5:15 PM 43.0 °F 40.3 °F 10.4 °F 27% 30.15 in 10.0 mi SSW 4.6 mph - N/A   Mostly Cloudy
5:35 PM 42.3 °F - 10.4 °F 27% 30.15 in 10.0 mi Calm Calm - N/A   Mostly Cloudy
5:55 PM 41.2 °F - 11.3 °F 30% 30.15 in 10.0 mi Calm Calm - N/A   Mostly Cloudy
6:35 PM 37.0 °F - 21.7 °F 54% 30.13 in 10.0 mi Calm Calm - N/A   Scattered Clouds
7:15 PM 35.1 °F - 25.3 °F 68% 30.12 in 10.0 mi Calm Calm - N/A   Overcast
7:55 PM 36.1 °F - 25.5 °F 65% 30.11 in 10.0 mi Calm Calm - N/A   Overcast
8:15 PM 36.9 °F - 23.2 °F 58% 30.09 in 10.0 mi Calm Calm - N/A   Overcast
8:35 PM 37.4 °F - 22.5 °F 55% 30.08 in 10.0 mi Calm Calm - N/A   Overcast
8:55 PM 37.8 °F - 22.8 °F 55% 30.08 in 10.0 mi Calm Calm - N/A   Overcast
9:15 PM 38.7 °F - 21.0 °F 49% 30.08 in 10.0 mi Calm Calm - N/A   Overcast
9:35 PM 39.0 °F 36.8 °F 21.6 °F 50% 30.07 in 10.0 mi SSE 3.5 mph - N/A   Overcast
9:55 PM 39.0 °F 36.8 °F 23.5 °F 54% 30.07 in 10.0 mi South 3.5 mph - N/A   Overcast
10:15 PM 39.7 °F 37.6 °F 23.2 °F 52% 30.06 in 10.0 mi South 3.5 mph - N/A   Overcast
10:35 PM 40.1 °F 38.0 °F 24.3 °F 53% 30.06 in 10.0 mi SSW 3.5 mph - N/A   Overcast
10:55 PM 40.1 °F 38.0 °F 25.9 °F 57% 30.06 in 10.0 mi SSW 3.5 mph - N/A   Light Drizzle
11:15 PM 40.3 °F 34.9 °F 29.1 °F 64% 30.06 in 10.0 mi SW 8.1 mph - N/A   Light Drizzle
11:35 PM 40.5 °F 35.1 °F 32.2 °F 72% 30.06 in 10.0 mi SW 8.1 mph - N/A Rain Rain
11:55 PM 40.1 °F 36.1 °F 34.0 °F 79% 30.05 in 10.0 mi SW 5.8 mph - N/A   Drizzle